Location: Bay Ridge
(40.6340°N, 74.0146°W)
Time: 04:55:11
(UTC+00:00)

Cosmos 2333 Rocket - Pass Details

Date: 15 November 2019
Orbit: 837 x 865 km, 70.8° (Epoch: 12 December)

Event Time Altitude Azimuth Distance (km) Brightness Sun altitude
Rises 11:03:26 0° 345° (NNW) 3,452 5.1 -7.7°
Reaches altitude 10° 11:06:21 10° 359° (N) 2,513 4.5 -7.2°
Maximum altitude 11:11:06 26° 54° (NE) 1,659 4.2 -6.4°
Drops below altitude 10° 11:15:49 10° 109° (ESE) 2,501 6.6 -5.5°
Sets 11:18:42 0° 122° (ESE) 3,432 7.5 -5.0°
